Location: Newark
(25.0000°N, 73.5000°E)
Time: 05:29:14
(UTC+00:00)

Altair - Pass Details

Date: 02 March 2021
Orbit: 1501 x 1683 km, 47.2° (Epoch: 12 April)

Event Time Altitude Azimuth Distance (km) Brightness Sun altitude
Rises 15:21:33 0° 278° (W) 4,636 11.2 -30.8°
Reaches altitude 10° 15:25:28 10° 292° (WNW) 3,669 10.3 -31.7°
Maximum altitude 15:32:24 23° 342° (NNW) 2,822 9.0 -33.3°
Enters shadow 15:37:46 14° 22° (NNE) 3,396 9.1 -34.5°
Drops below altitude 10° 15:39:31 10° 31° (NNE) 3,759 - -34.9°
Sets 15:43:38 0° 46° (NE) 4,776 - -35.8°
